Zurück zum Katalog

FENGYUN 1C DEB

AktivSSO
NORAD 31065·DEBRIS·🇨🇳 China

Gestartet May 10, 1999 von Taiyuan Satellite Launch Center

Loading…

Nächste Überflüge (nächste 24 Stunden)

TLE

AlterndSource: Space-Track

Epoche: Sep 5, 2026, 18:51 UTC

1 31065U 99025BFK 26248.78598441  .00000930  00000-0  38084-3 0  9996
2 31065  98.4531 264.8319 0033366 325.7399  34.1630 14.29166672683917

Verfolge FENGYUN 1C DEB in Echtzeit mit AllMySat

Download on the App Store